Погода в Спрингфилде

США     42°06′07″N   72°35′24″W
темп.,
°C
ветер,
м/с
пор.,
м/с
влажн.,
%
обл.,
%
осадки,
мм/ч
давл.,
гПа
погр.,
м
16 октября, сб
сб1623:00+17ююв2897100 1.9 1011252
02:00+17ююв399746 2.7 1011333
05:00+17ю3119750 0.0 1010386
08:00+18ю41196100 0.3 1009546
11:00+22ю51275100 0.0 10071002
14:00+24ю614662 0.0 10051381
17:00+21ю6137858 0.0 10041235
20:00+20ю5128660 0.1 1003962
17 октября, вс
вс1723:00+14ссз41091100 1.0 1005524
02:00+13зсз399496 4.9 1005775
05:00+10сз39925 0.0 1006400
08:00+10з27910 0.0 1007353
11:00+15сз475731 0.0 10071411
14:00+15зсз476448 0.7 10061408
17:00+13сз487667 0.9 1007525
20:00+9зсз288651 1.4 1008345
18 октября, пн
пн1823:00+8з31084100 0.0 1009399
02:00+6з39840 0.0 1009303
05:00+5з38850 0.0 1009280
08:00+5з29775 0.0 1010380
11:00+11сз48475 0.0 10101273
14:00+13сз584499 0.0 10082066
17:00+10зсз477030 0.1 10101198
20:00+6сз4116935 0.1 1012859
19 октября, вт
вт1923:00+6сз4106961 0.0 1013841
02:00+4зсз311765 0.0 1014727
05:00+3зсз39775 0.0 1015389
08:00+5зсз312695 0.0 1015937
11:00+11зсз612470 0.0 10141279
14:00+15зсз613484 0.0 10121648
17:00+15з413600 0.0 10101566
20:00+10з28780 0.0 1012163
20 октября, ср
ср2023:00+10зюз39856 0.0 1012208
02:00+12з3118312 0.0 1012462
05:00+12зсз2108896 0.0 1013357
08:00+14зсз397548 0.0 1014824
11:00+17зсз51067100 0.0 10151212
14:00+19зсз585715 0.0 10141400
17:00+18сз37670 0.0 1014610
20:00+12з11895 0.0 101611